www.pogodaiklimat.ru
Время
(UTC), дата
10 22.02
11 22.02
12 22.02
13 22.02
14 22.02
15 22.02
16 22.02
17 22.02
18 22.02
19 22.02
20 22.02
21 22.02
22 22.02
23 22.02
00 23.02
01 23.02
02 23.02
03 23.02
04 23.02
05 23.02
06 23.02
07 23.02
08 23.02
09 23.02
10 23.02
11 23.02
12 23.02
13 23.02
14 23.02
15 23.02
16 23.02
17 23.02
18 23.02
19 23.02
20 23.02
21 23.02
22 23.02
23 23.02
00 24.02
01 24.02
02 24.02
03 24.02
04 24.02
05 24.02
06 24.02
07 24.02
08 24.02
09 24.02
10 24.02
11 24.02
12 24.02
13 24.02
14 24.02
15 24.02
16 24.02
17 24.02
18 24.02
19 24.02
20 24.02
21 24.02
22 24.02
23 24.02
00 25.02
01 25.02
02 25.02
03 25.02
04 25.02
05 25.02
06 25.02
07 25.02
08 25.02
09 25.02
10 25.02
11 25.02
12 25.02
13 25.02
14 25.02
15 25.02
16 25.02
17 25.02
18 25.02
19 25.02
20 25.02
21 25.02
22 25.02
23 25.02
00 26.02
01 26.02
02 26.02
03 26.02
04 26.02
05 26.02
06 26.02
07 26.02
08 26.02
09 26.02
10 26.02
11 26.02
12 26.02
13 26.02
14 26.02
15 26.02
16 26.02
17 26.02
18 26.02
19 26.02
20 26.02
21 26.02
22 26.02
23 26.02
00 27.02
01 27.02
02 27.02
03 27.02
04 27.02
05 27.02
06 27.02
07 27.02
08 27.02
09 27.02
10 27.02
11 27.02
12 27.02
13 27.02
14 27.02
15 27.02
16 27.02
17 27.02
18 27.02
19 27.02
20 27.02
21 27.02
22 27.02
23 27.02
00 28.02
01 28.02
02 28.02
03 28.02
04 28.02
05 28.02
06 28.02
07 28.02
08 28.02
09 28.02
10 28.02
11 28.02
12 28.02
13 28.02
14 28.02
15 28.02
16 28.02
17 28.02
18 28.02
19 28.02
20 28.02
21 28.02
22 28.02
23 28.02
00 29.02
01 29.02
02 29.02
03 29.02
04 29.02
05 29.02
06 29.02
07 29.02
08 29.02
Ветер
(напр.,м/с)
Видим. Явления Облачность Т
(С)
Тd
(С)
f
(%)
Тe
(С)
Тes
(С)
Комфортность P
(гПа)
Po
(гПа)
Тmin
(С)
Tmax
(С)
R
(мм)
R24
(мм)
S
(см)
СВ 1 7000 м н/о +11.7 +9.9 89 +11 +11 тепло 1035.2 1027.0
С 1 9000 м н/о +12.5 +10.0 85 +12 +12 тепло 1035.4 1027.2
С 1 22 км 6/3 300 м
[Sc Ci fib]
+13.9 +9.5 75 +14 +20 тепло 1034.9 1026.7
С 2 18 км н/о +14.5 +10.1 75 +14 +14 тепло 1034.4 1026.2
СВ 2 17 км н/о +14.3 +9.7 74 +14 +14 тепло 1034.0 1025.8
С 2 18 км н/о +15.2 +10.4 73 +15 +15 тепло 1033.5 1025.4
С 5 20 км н/о +12.9 +9.3 79 +11 +11 по сезону 1034.0 1025.8
С 4 19 км н/о +12.0 +9.0 82 +10 +10 тепло 1034.3 1026.1
С 3 16 км н/о +11.6 +9.0 84 +10 +10 по сезону 1034.5 1026.3 +15.3
С 3 13 км н/о +11.3 +9.0 86 +10 +10 по сезону 1034.8 1026.5
ЮВ 1 9000 м н/о +11.1 +9.2 88 +11 +11 тепло 1034.7 1026.4
ЮВ 2 13 км ясно +10.9 +9.0 88 +9 +9 по сезону 1034.6 1026.3
Ю 1 11 км н/о +10.2 +8.5 89 +10 +10 тепло 1034.8 1026.5
З 1 10 км н/о +9.7 +8.3 91 +9 +9 тепло 1034.8 1026.5
Ю 1 11 км 1/1 100 м
[St]
+9.4 +8.2 92 +9 +9 по сезону 1034.6 1026.3
Ю 1 9000 м н/о +9.1 +7.9 92 +9 +9 тепло 1034.6 1026.3
ЮВ 2 9000 м н/о +9.5 +8.6 94 +8 +8 тепло 1034.3 1026.0
ЮВ 1 2000 м дымка 10/10 100 м
[St]
+9.5 +8.9 96 +10 +10 по сезону 1034.1 1025.8
ЮВ 1 3200 м н/о +9.3 +8.8 97 +9 +9 тепло 1033.9 1025.6
Ю 2 1100 м н/о +9.0 +8.7 98 +7 +7 тепло 1033.7 1025.4
ЮВ 2 900 м туман 10/10 200 м
[St]
+8.5 +8.4 99 +7 +7 по сезону 1033.9 1025.6 +8.5
Ю 2 1200 м н/о +8.3 +8.2 99 +7 +7 по сезону 1033.9 1025.6
ЮВ 3 1500 м н/о +7.8 +7.7 99 +5 +5 по сезону 1034.4 1026.0
ЮВ 2 400 м туман 10/10 50 м
[St]
+7.6 +7.5 99 +6 +6 прохладно 1034.9 1026.5
В 1 2400 м н/о +7.7 +7.6 99 +7 +7 по сезону 1035.5 1027.1
СВ 1 3900 м н/о +8.7 +8.6 99 +8 +8 тепло 1035.7 1027.4
СВ 1 2500 м дымка {туман} 10/10 100 м
[St]
+9.6 +9.0 96 +9 +9 по сезону 1035.4 1027.1
С 2 10 км н/о +10.5 +9.1 91 +9 +9 по сезону 1034.7 1026.4
С 3 15 км н/о +11.5 +9.1 85 +10 +10 тепло 1033.9 1025.7
С 2 20 км н/о +12.5 +9.5 82 +12 +12 по сезону 1033.4 1025.2
СЗ 2 20 км н/о +11.9 +9.1 83 +11 +11 по сезону 1033.1 1024.9
С 2 18 км н/о +11.5 +9.2 86 +10 +10 тепло 1032.9 1024.7
С 2 16 км н/о +11.1 +9.2 88 +10 +10 по сезону 1032.7 1024.5 +12.6
З 1 12 км н/о +10.6 +9.0 90 +11 +11 тепло 1032.7 1024.4
З 1 8000 м н/о +10.4 +9.3 93 +10 +10 тепло 1032.5 1024.2
З 1 6000 м дымка 3/3 200 м
[St]
+10.3 +9.5 95 +11 +11 по сезону 1032.3 1024.0
В 1 6000 м н/о +9.6 +8.8 95 +10 +10 тепло 1032.3 1024.0
В 2 6000 м н/о +10.1 +9.5 96 +9 +9 тепло 1032.1 1023.8
В 1 4000 м туман на расстоянии 9/9 100 м
[St]
+10.1 +9.6 97 +9 +9 по сезону 1031.9 1023.6
Ю 1 3400 м н/о +9.9 +9.4 97 +10 +10 тепло 1031.4 1023.1
ЮВ 2 2100 м н/о +9.6 +9.3 98 +8 +8 тепло 1030.7 1022.4
В 1 900 м туман 10/10 100 м
[St]
+9.3 +9.0 98 +8 +8 по сезону 1030.1 1021.8
В 1 2800 м н/о +9.3 +9.2 99 +9 +9 тепло 1029.5 1021.2
В 1 3000 м н/о +9.4 +9.3 99 +10 +10 тепло 1029.2 1020.9
З 2 900 м туман 9/9 100 м
[St]
+9.7 +9.4 98 +8 +8 по сезону 1029.2 1020.9 +9.2
З 2 7000 м н/о +9.7 +9.1 96 +8 +8 тепло 1029.3 1021.0
ЮЗ 3 6000 м н/о +9.5 +8.6 94 +7 +7 тепло 1029.5 1021.2
З 3 6000 м туман на расстоянии 10/10 100 м
[St]
+9.7 +8.5 92 +8 +8 по сезону 1030.5 1022.2
ЮЗ 2 15 км н/о +10.1 +8.2 88 +9 +9 по сезону 1030.6 1022.3
ЮЗ 2 20 км н/о +11.0 +7.9 81 +10 +10 тепло 1029.9 1021.7
СЗ 2 18 км {туман} 5/3 300 м
[Sc Ci fib]
+12.5 +8.2 75 +12 +17 по сезону 1028.9 1020.7
З 4 20 км н/о +13.0 +8.9 76 +11 +11 по сезону 1027.9 1019.8
З 5 20 км н/о +13.1 +8.8 75 +11 +11 тепло 1027.5 1019.4
З 5 20 км н/о +13.5 +9.2 75 +12 +12 по сезону 1027.2 1019.1
З 6 20 км н/о +12.4 +8.3 76 +10 +10 по сезону 1026.5 1018.3
З 5 20 км н/о +12.2 +8.3 77 +10 +10 тепло 1026.6 1018.4
ЮЗ 5 20 км н/о +11.7 +7.6 76 +9 +9 по сезону 1026.5 1018.3 +13.7
ЮЗ 4 20 км н/о +11.6 +7.3 75 +9 +9 по сезону 1026.3 1018.1
Ю 3 20 км н/о +11.7 +7.2 74 +10 +10 тепло 1026.1 1017.9
ЮЗ 3 18 км 9/9 300 м
[Frnb]
+11.8 +7.5 75 +10 +10 по сезону 1026.1 1017.9
ЮЗ 4 20 км н/о +11.9 +7.8 76 +10 +10 тепло 1025.7 1017.5
Ю 3 20 км н/о +12.0 +7.9 76 +10 +10 тепло 1024.8 1016.6
ЮЗ 4 18 км 9/8 300 м
[Frnb Ac trans]
+12.4 +7.9 74 +11 +11 тепло 1024.4 1016.3
ЮЗ 4 15 км слаб. морось н/о +11.9 +8.9 82 +10 +10 тепло 1024.0 1015.9 0.0
ЮЗ 3 12 км слаб. морось с дождем н/о +11.3 +9.6 89 +10 +10 тепло 1023.6 1015.4 0.4
Ю 3 12 км слаб. дождь 10/6 300 м
[Frnb Ac As]
+11.7 +9.9 89 +10 +10 по сезону 1022.7 1014.6 1
ЮЗ 3 20 км слаб. морось н/о +12.2 +9.9 86 +11 +11 тепло 1022.2 1014.1 0.2
ЮЗ 5 20 км н/о +12.7 +10.1 84 +10 +10 тепло 1021.8 1013.7
ЮЗ 6 15 км слаб. дождь 10/6 300 м
[Frnb Ac As]
+13.0 +10.4 84 +11 +11 тепло 1021.9 1013.8 +11.3 0.2 1.2
ЮЗ 6 4900 м морось с дождем н/о +12.1 +10.8 92 +9 +9 тепло 1021.6 1013.5 0.8
ЮЗ 5 2200 м морось с дождем н/о +12.3 +11.7 96 +10 +10 тепло 1022.6 1014.5 1
СЗ 5 6000 м слаб. дождь 10/9 200 м
[Frnb Ac As]
+12.7 +12.4 98 +10 +10 по сезону 1022.7 1014.6 4
СЗ 6 н/о слаб. морось н/о +11.3 +11.0 98 +8 +8 по сезону 1023.7 1015.5 0.0
З 5 17 км в посл. час морось н/о +11.8 +10.7 93 +9 +9 тепло 1024.2 1016.1 0.2
СЗ 5 18 км слаб. морось {дождь} 9/8 300 м
[Cu Sc Ac As]
+12.0 +9.9 87 +9 +10 по сезону 1025.0 1016.8 0.6
З 5 20 км н/о +12.8 +8.9 77 +11 +11 по сезону 1025.3 1017.2 0.0
З 6 20 км н/о +13.4 +6.9 65 +11 +11 тепло 1024.6 1016.5
З 7 20 км н/о +13.3 +7.3 67 +11 +11 по сезону 1024.3 1016.2 0.0
З 5 20 км н/о +12.9 +6.7 66 +11 +11 по сезону 1024.6 1016.5
З 6 20 км н/о +12.1 +7.4 73 +9 +9 по сезону 1024.9 1016.7 0.0
З 3 20 км дымка н/о +11.8 +7.5 75 +10 +10 по сезону 1025.1 1016.9 +13.7 0.0
СЗ 3 18 км в посл. час морось н/о +11.0 +9.3 89 +9 +9 по сезону 1025.7 1017.5 0.2
З 2 19 км в посл. час морось н/о +10.6 +8.0 84 +10 +10 тепло 1025.8 1017.6 0.0
З 6 17 км {морось} 6/6 300 м
[Cu Sc]
+11.2 +5.5 68 +8 +8 по сезону 1026.0 1017.8 0.2
З 6 19 км слаб. морось н/о +11.5 +6.4 71 +9 +9 по сезону 1026.2 1018.0 0.0
З 5 20 км н/о +11.3 +5.6 68 +9 +9 тепло 1026.3 1018.1
З 5 16 км в посл. час морось 9/8 300 м
[Cu Sc Ac As]
+11.0 +6.9 76 +8 +8 по сезону 1026.5 1018.3 0.0
З 5 20 км н/о +11.4 +4.6 63 +9 +9 тепло 1026.1 1017.9
З 5 20 км н/о +11.4 +5.7 68 +9 +9 тепло 1026.0 1017.8
З 5 16 км в посл. час морось 9/9 300 м
[Sc]
+11.0 +6.5 74 +8 +8 по сезону 1025.5 1017.3 0.0
З 3 20 км н/о +11.2 +7.3 77 +9 +9 тепло 1025.2 1017.0
З 5 19 км в посл. час морось н/о +10.9 +7.6 80 +8 +8 тепло 1025.2 1017.0 0.0
З 4 15 км морось 10/8 200 м
[Sc As op]
+10.9 +7.9 82 +8 +8 по сезону 1025.4 1017.2 +10.6 0.0 4.6
З 3 18 км в посл. час морось н/о +10.7 +7.2 79 +9 +9 тепло 1025.3 1017.1 0.4
З 4 18 км н/о +10.9 +7.0 77 +9 +9 тепло 1025.8 1017.6 0.0
ЮЗ 4 22 км {дождь} 9/8 200 м
[Sc Ac As]
+11.4 +7.3 76 +9 +10 по сезону 1026.3 1018.1 0.4
З 3 20 км н/о +11.7 +7.0 73 +10 +10 тепло 1026.7 1018.5
З 2 8000 м сильн. дождь н/о +11.4 +9.1 86 +10 +10 тепло 1026.6 1018.4 0.4
З 5 22 км в посл. час дождь 10/5 300 м
[Cu Sc As trans]
+12.9 +8.0 72 +11 +12 по сезону 1026.3 1018.2 0.8
З 5 20 км н/о +13.3 +7.9 70 +12 +12 тепло 1025.4 1017.3
З 5 18 км слаб. морось н/о +13.3 +8.1 71 +11 +11 тепло 1024.7 1016.6 0.0
З 4 20 км н/о +13.9 +6.5 61 +13 +13 тепло 1024.4 1016.3 0.0
З 4 19 км н/о +13.6 +6.7 63 +12 +12 тепло 1023.7 1015.6
ЮЗ 5 20 км н/о +12.9 +7.8 71 +11 +11 тепло 1023.6 1015.5
ЮЗ 5 20 км в посл. час морось н/о +12.6 +8.1 74 +11 +11 по сезону 1023.2 1015.1 +14.0 0.0
ЮЗ 6 20 км в посл. час морось н/о +12.0 +8.5 79 +9 +9 по сезону 1023.3 1015.2 0.0
ЮЗ 6 20 км в посл. час морось н/о +11.8 +9.0 83 +9 +9 тепло 1022.9 1014.8 0.0
ЮЗ 7 15 км в посл. час морось 8/8 300 м
[Sc As trans]
+12.0 +9.4 84 +9 +9 по сезону 1022.3 1014.2 0.0
ЮЗ 6 20 км н/о +12.6 +9.6 82 +10 +10 тепло 1022.0 1013.9
ЮЗ 5 20 км н/о +12.7 +9.7 82 +10 +10 тепло 1021.6 1013.5
ЮЗ 6 15 км {морось} 6/6 300 м
[Sc]
+12.7 +9.5 81 +10 +10 тепло 1021.0 1012.9
ЮЗ 6 19 км н/о +13.0 +9.6 80 +11 +11 тепло 1020.5 1012.4
ЮЗ 5 19 км н/о +13.0 +9.6 80 +11 +11 тепло 1020.6 1012.5
ЮЗ 6 15 км ясно +12.9 +9.3 79 +10 +10 тепло 1019.9 1011.8
ЮЗ 7 18 км н/о +12.9 +9.2 78 +10 +10 тепло 1019.9 1011.8
ЮЗ 6 17 км н/о +13.0 +9.1 77 +11 +11 тепло 1020.2 1012.1
ЮЗ 6 15 км 1/1 300 м
[Cu hum]
+13.1 +9.2 77 +11 +11 тепло 1020.4 1012.3 +11.7 1.2
ЮЗ 7 16 км н/о +13.5 +9.2 75 +11 +11 тепло 1020.8 1012.7
ЮЗ 7 15 км слаб. морось н/о +14.0 +9.2 73 +12 +12 тепло 1021.2 1013.1 0.0
ЮЗ 7 12 км 6/1 600 м
[Sc Cs]
+14.6 +9.4 71 +13 +13 тепло 1021.9 1013.8 0.0
З 6 14 км слаб. морось н/о +15.4 +10.0 70 +14 +14 тепло 1022.5 1014.5 0.0
З 7 12 км слаб. морось н/о +15.2 +10.4 73 +13 +13 тепло 1023.1 1015.1 0.0
З 7 12 км 9/8 600 м
[Sc As trans]
+15.7 +10.9 73 +14 +14 тепло 1023.3 1015.3 0.0
З 8 13 км слаб. морось н/о +16.2 +10.5 69 +15 +15 тепло 1022.8 1014.8 0.0
З 7 11 км слаб. морось н/о +16.6 +11.3 71 +15 +15 тепло 1022.7 1014.7 0.0
З 8 12 км слаб. морось н/о +16.2 +10.9 71 +15 +15 тепло 1022.7 1014.7 0.0
З 6 11 км в посл. час морось н/о +15.8 +11.0 73 +15 +15 тепло 1023.0 1015.0 0.0
З 6 10 км н/о +14.6 +11.0 79 +13 +13 тепло 1023.5 1015.4
З 4 9000 м дымка н/о +14.0 +10.6 80 +13 +13 тепло 1023.7 1015.6 +16.9 0.0
ЮЗ 4 10 км н/о +14.1 +10.1 77 +13 +13 тепло 1024.0 1015.9
ЮЗ 4 11 км н/о +13.8 +9.8 77 +12 +12 тепло 1024.5 1016.4
ЮЗ 3 15 км 3/1 300 м
[Cu hum Ac trans Ci fib]
+13.1 +9.5 79 +12 +12 тепло 1024.4 1016.3
Ю 2 12 км н/о +13.0 +9.1 77 +12 +12 тепло 1024.6 1016.5
З 1 13 км н/о +12.5 +8.6 77 +13 +13 тепло 1024.5 1016.4
Ю 1 15 км ясно +11.9 +8.6 80 +13 +13 тепло 1024.2 1016.0
З 1 12 км н/о +11.1 +8.3 83 +12 +12 тепло 1023.9 1015.7
Ю 1 11 км н/о +11.1 +8.7 85 +12 +12 тепло 1023.5 1015.3
ЮВ 2 15 км 8/0
[Cs]
+11.4 +9.0 85 +11 +11 тепло 1022.7 1014.5
ЮВ 1 11 км н/о +11.4 +9.0 85 +12 +12 тепло 1021.9 1013.8
Ю 1 11 км н/о +11.2 +8.9 86 +11 +11 тепло 1021.7 1013.5
Ю 2 15 км 6/0 1500 м
[Ac trans Ci fib]
+12.0 +8.8 81 +11 +11 тепло 1021.5 1013.4 +10.9
Ю 3 12 км н/о +12.0 +8.8 81 +10 +10 тепло 1020.9 1012.8
Ю 1 13 км н/о +12.0 +8.7 80 +12 +12 тепло 1021.0 1012.9
Ю 3 10 км 8/3 600 м
[Sc Ac und Cc]
+12.8 +9.2 79 +12 +13 тепло 1020.7 1012.6
Ю 2 15 км н/о +14.4 +9.2 71 +14 +14 тепло 1019.9 1011.9
Ю 4 16 км н/о +14.9 +8.6 66 +14 +14 тепло 1019.1 1011.1
Ю 5 15 км 8/0 1500 м
[Ac As Ci sp]
+15.8 +7.8 59 +15 +18 тепло 1018.1 1010.1
Ю 5 17 км н/о +17.1 +8.2 56 +17 +17 тепло 1016.6 1008.7
Ю 4 19 км н/о +17.3 +5.6 46 +17 +17 тепло 1015.1 1007.2
ЮЗ 8 20 км н/о +17.9 +0.1 30 +17 +17 тепло 1013.6 1005.7
ЮЗ 4 19 км н/о +17.9 +1.8 34 +18 +18 тепло 1013.1 1005.2
ЮЗ 5 18 км н/о +16.9 +0.9 34 +16 +16 тепло 1012.3 1004.4
ЮЗ 5 20 км н/о +15.7 +1.4 38 +15 +15 тепло 1012.0 1004.0 +18.2
Ю 2 19 км н/о +14.2 +3.9 50 +14 +14 тепло 1011.8 1003.8
Ю 3 19 км н/о +13.1 +6.9 66 +12 +12 тепло 1011.0 1003.0
Ю 6 15 км 1/1 600 м
[Cu hum Ac As]
+12.9 +7.8 71 +11 +11 тепло 1009.1 1001.1
Ю 7 19 км н/о +13.3 +8.8 74 +11 +11 тепло 1007.8 999.8
Ю 6 3300 м сильн. дождь н/о +13.2 +10.4 83 +11 +11 тепло 1007.0 999.0 0.8
Ю 6 10 км дождь 8/4 200 м
[Frnb As op]
+12.7 +10.6 87 +10 +10 тепло 1005.0 997.0 3
Ю 5 2600 м сильн. дождь н/о +13.0 +10.9 87 +11 +11 тепло 1003.4 995.5 2
ЮЗ 7 16 км дождь н/о +13.4 +11.6 89 +11 +11 тепло 1003.6 995.7 6
ЮЗ 9
{24}
12 км слаб. дождь 9/9 200 м
[Frnb]
+13.2 +11.4 89 +10 +10 тепло 1004.3 996.4 15
З 8 18 км н/о +13.1 +9.7 80 +10 +10 тепло 1004.5 996.5
ЮЗ 8 11 км слаб. морось н/о +12.2 +9.4 83 +9 +9 тепло 1005.5 997.5 1
ЮЗ 6
{24}
15 км в посл. час ливневой дождь 6/6 600 м
[Sc]
+11.8 +8.1 78 +9 +9 тепло 1006.7 998.7 +11.8 1 19.6
ЮЗ 6 17 км н/о +11.5 +7.2 75 +9 +9 тепло 1007.1 999.1
ЮЗ 7 18 км н/о +11.0 +7.1 77 +8 +8 тепло 1008.3 1000.2 0.0
Местоположение метеостанции Ла-Корунья (Испания): широта 43.37 долгота -8.42 высота над уровнем моря 67 м.
В архиве по умолчанию представлена погода в Ла-Корунье за последнюю неделю. Архивные данные за месяц целиком и за предыдущие месяцы, начиная с января 2011 года, Вы можете получить, выбрав интересующий диапазон дат из раскрывающегося списка и нажав кнопку "Найти!".
*Определитесь, кто Вы:
Внимание! Время в таблицах - всемирное. Для получения местного времени необходимо прибавить поправку, которая равна 1 ч.
Смотрите также архив погоды в соседних городах и на ближайших метеорологических станциях:
Партнеры нашего сайта:      
Пояснения к столбцам:
  • Ветер - указаны скорость ветра в м/с - средняя за 10 мин, порывы в срок и между сроками (в фигурных скобках) и направление, откуда дует ветер: С - северный,
  • СВ - северо-восточный, В - восточный, ЮВ - юго-восточный, Ю - южный, ЮЗ - юго-западный, З - западный, СЗ - северо-западный.
  • Видимость - горизонтальная дальность видимости в метрах или километрах. При видимости от 1 до 10 км при отсутствии осадков обычно наблюдается дымка, при ухудшении видимости до 1 км и менее - туман. В сухую погоду видимость может ухудшаться дымом, пылью или мглою.
  • Явления - указаны атмосферные явления, наблюдавшиеся в срок или в последний час перед сроком; фигурными скобками обозначены явления, наблюдавшиеся между сроками (за 1-3 часа до срока); квадратными скобками обозначены град или гололедные отложения с указанием их диаметра в мм.
  • Облачность - указаны через наклонную черту общая и нижняя облачность в баллах и высота нижней границы облаков в метрах; квадратными скобками обозначены формы облаков: Ci - перистые, Cs - перисто-слоистые, Cc - перисто-кучевые, Ac - высококучевые, As - высокослоистые, Sc - слоисто-кучевые, Ns - слоисто-дождевые, Cu - кучевые, Cb - кучево-дождевые. Подробнее классификацию облаков см. в Атласе облаков (PDF).
  • T - Температура воздуха - температура, измеренная на высоте 2 м над землей.
  • Td - Температура точки росы - температура, при понижении до которой содержащийся в воздухе водяной пар достигнет насыщения.
  • f - Относительная влажность воздуха - влажноcть воздуха, измеренная на высоте 2 м над землей.
  • Te - Эффективная температура - температура, которую ощущает одетый по сезону человек в тени. Характеристика душности погоды. При расчете учитывается влияние влажности воздуха и скорости ветра на теплоощущения человека.
  • Tes - Эффективная температура на солнце - температура, которую ощущает человек, с поправкой на солнечный нагрев. Характеристика знойности погоды. Зависит от высоты солнца над горизонтом, облачности и скорости ветра. Ночью, в пасмурную погоду, а также при ветре 12 м/с и более поправка равна нулю.
  • P - Атмосферное давление - приведенное к уровню моря атмосферное давление.
  • Po - Атмосферное давление - измеренное на уровне метеостанции атмосферное давление.
  • Tmin - Минимальная температура - минимум температуры воздуха на высоте 2 м над землей.
  • Tmax - Максимальная температура - максимум температуры воздуха на высоте 2 м над землей.
  • R - Количество осадков - Количество выпавших осадков за период времени, мм. При наведении курсора мыши на число - период времени, за который выпало указанное количество осадков.
  • R24 - Количество осадков - Количество выпавших осадков за 24 часа, мм.
  • S - Снежный покров - Высота снежного покрова, см. При наведении курсора мыши на число - состояние снежного покрова и степень покрытия местности в баллах.